Location: Andrew
(53.8830°N, 112.3330°W)
Time: 20:27:54
(UTC-06:00)

Envisat - Visible Passes

Search period start: 19 September 2018 00:00
Search period end: 29 September 2018 00:00
Orbit: 764 x 766 km, 98.2° (Epoch: 19 September)

Date Brightness Start Highest point End Pass type
(mag) Time Alt. Az. Time Alt. Az. Time Alt. Az.
19 Sep 5.2 21:30:07 10° SSW 21:34:16 25° W 21:38:27 10° NW visible
20 Sep 4.1 20:52:20 10° S 20:57:14 47° W 21:02:09 10° NNW visible
21 Sep 3.1 20:15:17 10° SSE 20:20:23 88° WSW 20:25:31 10° NNW visible
21 Sep 5.7 21:57:03 10° SW 22:00:11 16° W 22:03:19 10° NW visible
22 Sep 4.9 21:18:32 10° SSW 21:22:59 30° W 21:27:28 10° NNW visible
23 Sep 3.7 20:41:01 10° S 20:46:00 57° W 20:51:02 10° NNW visible
24 Sep 3.0 20:04:08 10° SSE 20:09:12 78° ENE 20:14:19 10° NNW visible
24 Sep 5.5 21:45:12 10° SW 21:48:50 20° W 21:52:30 10° NW visible
25 Sep 4.6 21:07:03 10° SSW 21:11:43 36° W 21:16:25 10° NNW visible
26 Sep 3.4 20:29:44 10° S 20:34:47 69° WSW 20:39:53 10° NNW visible
26 Sep 5.9 22:12:46 10° WSW 22:14:48 12° W 22:16:50 10° WNW visible
27 Sep 3.0 19:53:01 10° SSE 19:58:03 65° ENE 20:03:06 10° N visible
27 Sep 5.3 21:33:30 10° SW 21:37:32 23° W 21:41:35 10° NW visible
28 Sep 4.2 20:55:38 10° S 21:00:28 43° W 21:05:20 10° NNW visible
